DW6368 Weather Reports


Display with metric or nautical units.
time (UTC)temp
F
wind
direction
speed
MPH
gust
MPH
rain 1hr
in
rain 24hr
in
rain mn
in
humidity
%
barometer
mb
20260903121303 64 49 0.0 2.0 0.00 0.00 0.00 91 1012.6
20260903120304 64 84 0.0 1.0 0.00 0.00 0.00 91 1012.5
20260903115305 64 35 1.0 2.0 0.00 0.00 0.00 91 1012.6
20260903114303 64 47 1.0 2.0 0.00 0.00 0.00 92 1012.7
20260903113324 64 117 0.0 1.0 0.00 0.00 0.00 92 1012.8
20260903112324 64 146 0.0 1.0 0.00 0.00 0.00 92 1012.8
20260903111303 64 51 0.0 1.0 0.00 0.00 0.00 91 1012.9
20260903110303 64 51 0.0 1.0 0.00 0.00 0.00 91 1012.9
20260903105305 64 79 0.0 1.0 0.00 0.00 0.00 92 1013.0
20260903104324 64 41 0.0 2.0 0.00 0.00 0.00 92 1013.0
20260903103302 64 118 0.0 2.0 0.00 0.00 0.00 93 1013.1
20260903102324 63 92 0.0 1.0 0.00 0.00 0.00 93 1013.1
20260903101302 63 59 0.0 1.0 0.00 0.00 0.00 94 1013.0
20260903100303 64 51 0.0 2.0 0.00 0.00 0.00 94 1013.1
20260903095305 64 100 0.0 2.0 0.00 0.00 0.00 94 1013.2
20260903094303 64 50 0.0 1.0 0.00 0.00 0.00 94 1013.2
20260903093303 64 35 0.0 1.0 0.00 0.00 0.00 95 1013.3
20260903092324 64 86 1.0 2.0 0.00 0.00 0.00 95 1013.4
20260903091303 64 34 0.0 1.0 0.00 0.00 0.00 94 1013.5
20260903090303 64 60 0.0 1.0 0.00 0.00 0.00 94 1013.6
20260903085305 64 42 0.0 1.0 0.00 0.00 0.00 94 1013.6
20260903084358 64 51 0.0 0.0 0.00 0.00 0.00 93 1013.7
20260903083302 65 153 0.0 1.0 0.00 0.00 0.00 93 1013.8
20260903082306 65 178 0.0 1.0 0.00 0.00 0.00 93 1013.7
20260903081302 65 51 0.0 1.0 0.00 0.00 0.00 93 1013.8
20260903080316 65 67 0.0 1.0 0.00 0.00 0.00 93 1013.8
20260903075306 66 43 0.0 1.0 0.00 0.00 0.00 93 1014.0
20260903074303 66 46 0.0 1.0 0.00 0.00 0.00 93 1014.0
20260903073302 66 42 0.0 1.0 0.00 0.00 0.00 93 1013.7
20260903072306 66 51 0.0 2.0 0.00 0.00 0.00 93 1013.8
20260903071324 66 164 0.0 1.0 0.00 0.00 0.00 92 1013.8
20260903070302 66 189 0.0 1.0 0.00 0.00 0.00 92 1013.9
20260903065305 66 225 0.0 1.0 0.00 0.00 0.00 91 1013.8
20260903064303 67 181 0.0 2.0 0.00 0.00 0.00 91 1013.8
20260903063303 67 60 0.0 1.0 0.00 0.00 0.00 91 1013.7
20260903062306 67 215 0.0 1.0 0.00 0.00 0.00 90 1013.6
20260903061302 67 172 0.0 2.0 0.00 0.00 0.00 89 1013.6
20260903060303 67 176 0.0 2.0 0.00 0.00 0.00 88 1013.7
20260903055306 67 186 0.0 1.0 0.00 0.00 0.00 87 1013.6
20260903054303 67 152 0.0 1.0 0.00 0.00 0.00 85 1013.6
20260903053324 67 185 0.0 2.0 0.00 0.00 0.00 85 1013.5
20260903052306 67 175 0.0 2.0 0.00 0.00 0.00 84 1013.7
20260903050311 67 145 0.0 1.0 0.00 0.00 0.00 81 1013.5
20260903045306 68 9 0.0 1.0 0.00 0.00 0.00 80 1013.5
20260903044302 68 212 0.0 1.0 0.00 0.00 0.00 77 1013.4
20260903043324 69 204 0.0 1.0 0.00 0.00 0.00 76 1013.4
20260903041303 70 9 0.0 3.0 0.00 0.00 0.00 75 1013.5
20260903040302 70 267 1.0 3.0 0.00 0.00 0.00 75 1013.3
20260903034302 70 292 1.0 3.0 0.00 0.00 0.00 76 1013.1
20260903033303 70 268 2.0 4.0 0.00 0.00 0.00 76 1013.0
20260903031323 71 274 2.0 5.0 0.00 0.00 0.00 74 1012.9
20260903030324 72 280 2.0 6.0 0.00 0.00 0.00 73 1012.9
20260903025305 72 280 2.0 4.0 0.00 0.00 0.00 72 1013.0
20260903024303 73 294 2.0 5.0 0.00 0.00 0.00 70 1012.8
20260903023303 73 277 2.0 5.0 0.00 0.00 0.00 68 1012.8
20260903022324 73 308 2.0 6.0 0.00 0.00 0.00 68 1012.7
20260903021324 74 267 2.0 5.0 0.00 0.00 0.00 68 1012.6
20260903020303 75 295 2.0 5.0 0.00 0.00 0.00 67 1012.6
20260903015305 76 304 1.0 7.0 0.00 0.00 0.00 66 1012.6
20260903014324 76 302 2.0 5.0 0.00 0.00 0.00 67 1012.6
20260903013319 76 292 3.0 7.0 0.00 0.00 0.00 68 1012.6
20260903012306 77 300 3.0 7.0 0.00 0.00 0.00 67 1012.6
20260903011302 77 298 5.0 9.0 0.00 0.00 0.00 65 1012.5
20260903010324 78 300 4.0 11.0 0.00 0.00 0.00 62 1012.5
20260903005306 78 302 3.0 12.0 0.00 0.00 0.00 63 1012.4
20260903004303 79 283 4.0 12.0 0.00 0.00 0.00 61 1012.4
20260903003303 79 292 5.0 11.0 0.00 0.00 0.00 60 1012.4
20260903002306 80 304 4.0 9.0 0.00 0.00 0.00 57 1012.3
20260903001303 81 301 5.0 13.0 0.00 0.00 0.00 57 1012.4
20260902235305 85 270 2.0 7.0 0.00 0.00 0.00 56 1012.4
20260902234303 84 250 2.0 6.0 0.00 0.00 0.00 56 1012.4
20260902233302 84 215 2.0 6.0 0.00 0.00 0.00 58 1012.5
20260902232306 83 215 2.0 7.0 0.00 0.00 0.00 58 1012.6
20260902231303 83 215 2.0 7.0 0.00 0.00 0.00 56 1012.7
20260902230303 83 201 2.0 6.0 0.00 0.00 0.00 57 1012.7
20260902225306 83 219 2.0 10.0 0.00 0.00 0.00 58 1013.0
20260902224302 83 240 3.0 9.0 0.00 0.00 0.00 59 1013.0
20260902222305 82 221 3.0 11.0 0.00 0.00 0.00 61 1013.3
20260902221303 81 221 3.0 10.0 0.00 0.00 0.00 61 1013.4
20260902220302 81 244 3.0 10.0 0.00 0.00 0.00 59 1013.5
20260902215324 81 237 4.0 9.0 0.00 0.00 0.00 63 1013.6
20260902214312 82 224 3.0 10.0 0.00 0.00 0.00 63 1013.9
20260902213303 82 251 3.0 9.0 0.00 0.00 0.00 62 1014.1
20260902212305 82 240 4.0 10.0 0.00 0.00 0.00 62 1014.2
20260902211302 82 215 3.0 10.0 0.00 0.00 0.00 60 1014.2
20260902210324 82 228 3.0 6.0 0.00 0.00 0.00 61 1014.3
20260902205306 82 197 2.0 7.0 0.00 0.00 0.00 65 1014.4
20260902203311 82 216 2.0 7.0 0.00 0.00 0.00 65 1014.2
20260902202306 82 241 3.0 7.0 0.00 0.00 0.00 64 1014.2
20260902201303 82 212 2.0 7.0 0.00 0.00 0.00 65 1014.3
20260902200303 82 202 2.0 9.0 0.00 0.00 0.00 65 1014.5
20260902195324 82 187 1.0 4.0 0.00 0.00 0.00 65 1014.6
20260902194324 82 207 2.0 5.0 0.00 0.00 0.00 65 1014.6
20260902193303 81 245 2.0 6.0 0.00 0.00 0.00 65 1014.7
20260902192306 81 211 2.0 5.0 0.00 0.00 0.00 65 1015.0
20260902191324 81 174 1.0 5.0 0.00 0.00 0.00 65 1015.1
20260902190302 80 107 1.0 4.0 0.00 0.00 0.00 64 1015.1
20260902185306 80 241 2.0 5.0 0.00 0.00 0.00 66 1015.2
20260902184303 79 199 1.0 4.0 0.00 0.00 0.00 66 1015.2
20260902183311 80 177 1.0 6.0 0.00 0.00 0.00 68 1015.2
20260902181303 79 207 1.0 4.0 0.00 0.00 0.00 69 1015.2
20260902180302 78 125 1.0 4.0 0.00 0.00 0.00 69 1015.4
20260902175324 78 254 1.0 4.0 0.00 0.00 0.00 70 1015.5
20260902173324 77 227 2.0 4.0 0.00 0.00 0.00 71 1015.3
20260902172307 77 189 1.0 5.0 0.00 0.00 0.00 72 1015.2
20260902171303 76 264 2.0 5.0 0.00 0.00 0.00 72 1015.3
20260902170321 76 213 2.0 6.0 0.00 0.00 0.00 74 1015.2
20260902164303 75 183 1.0 4.0 0.00 0.00 0.00 75 1015.2
20260902163303 75 256 2.0 5.0 0.00 0.00 0.00 75 1015.2
20260902161303 74 291 2.0 5.0 0.00 0.00 0.00 75 1015.3
20260902160324 73 227 1.0 3.0 0.00 0.00 0.00 78 1015.1
20260902155323 73 244 1.0 3.0 0.00 0.00 0.00 79 1015.0
20260902154324 73 61 1.0 3.0 0.00 0.00 0.00 78 1015.1
20260902153310 71 107 1.0 3.0 0.00 0.00 0.00 81 1015.2
20260902152307 69 149 1.0 2.0 0.00 0.00 0.00 87 1015.2
20260902151303 68 78 1.0 2.0 0.00 0.00 0.00 90 1015.1
20260902150303 66 149 1.0 2.0 0.00 0.00 0.00 95 1015.1
20260902144303 64 86 0.0 2.0 0.00 0.00 0.00 100 1015.1
20260902143303 62 134 0.0 1.0 0.00 0.00 0.00 100 1015.0
20260902142311 60 20 0.0 1.0 0.00 0.00 0.00 99 1015.0
20260902140303 59 132 0.0 1.0 0.00 0.00 0.00 98 1014.7
20260902135324 59 28 0.0 1.0 0.00 0.00 0.00 98 1014.5
20260902134303 59 56 0.0 1.0 0.00 0.00 0.00 97 1014.4
20260902133302 59 33 0.0 1.0 0.00 0.00 0.00 97 1014.4
20260902132306 59 9 0.0 1.0 0.00 0.00 0.00 97 1014.3
20260902131324 59 9 0.0 1.0 0.00 0.00 0.00 97 1014.2
20260902130303 59 51 0.0 1.0 0.00 0.00 0.00 96 1014.2
20260902125305 59 9 0.0 1.0 0.00 0.00 0.00 96 1014.2
20260902124303 59 291 0.0 1.0 0.00 0.00 0.00 96 1014.0
20260902123324 59 31 0.0 1.0 0.00 0.00 0.00 96 1014.1
20260902122305 59 51 0.0 2.0 0.00 0.00 0.00 96 1014.2